Wind_Speed
28 29 30 30 30 31 33 34 34 34 35 36 35 35 34 33 32 31 30 29 28 28 28 28 28 27 27 26 26 26 26 26 26 25 25 25 26 26 26 26 26 25 25 26 26 26 27 27 27 27 27 26 26 26 26 26 26 26 26 26 26 26 26 26 26 26 26 26 26 26 27 27 27 27 26 25 25 25 25 25 24 24 24 23 23 23
30 30 30 30 30 31 33 34 34 34 35 35 35 34 34 33 32 31 30 29 28 28 28 28 28 27 27 27 27 27 27 26 25 25 24 24 24 25 25 25 26 26 25 25 26 26 27 28 28 28 27 26 26 25 25 25 25 25 25 25 25 25 25 26 26 25 25 25 25 25 25 25 25 26 25 25 25 25 25 24 24 24 24 23 24 24
31 31 31 30 30 31 33 35 35 35 34 34 34 33 33 32 32 31 30 29 28 28 27 27 28 27 27 27 27 27 27 26 25 24 24 24 24 24 24 25 25 25 25 25 26 26 27 28 29 29 28 27 26 25 25 26 26 25 25 25 25 25 26 26 25 25 25 25 24 24 24 24 25 25 25 25 25 25 25 25 24 24 24 24 24 24
30 30 31 31 32 33 33 34 35 34 33 33 33 32 31 31 30 30 29 29 28 28 28 27 27 27 27 27 27 27 27 26 25 25 24 25 25 25 26 25 25 25 25 25 26 27 28 29 29 29 28 27 26 26 26 26 25 25 24 24 24 25 25 25 25 25 25 25 24 24 24 24 24 24 24 24 24 24 24 24 24 23 23 23 23 23
31 30 31 32 33 34 34 33 33 32 32 31 31 30 30 29 29 29 29 28 28 28 27 27 26 26 27 27 28 28 27 27 26 26 26 26 27 27 27 26 25 25 25 25 26 28 29 29 29 29 28 27 26 26 25 24 23 22 21 21 22 23 23 24 24 24 24 24 24 24 23 23 22 22 23 23 23 23 23 23 23 22 22 22 22 22
33 32 32 33 33 33 33 32 31 30 29 29 29 29 29 29 29 29 29 28 27 27 26 26 26 26 26 27 28 28 28 27 26 26 27 27 29 29 30 28 26 25 25 25 27 28 29 30 29 28 26 25 25 24 23 21 20 19 18 19 20 21 22 22 22 22 23 23 23 23 22 22 22 22 22 23 23 23 23 23 23 22 21 21 20 20
35 34 33 32 31 31 30 29 28 27 27 28 29 30 30 30 30 30 29 28 27 27 27 27 26 26 26 27 27 28 27 27 26 26 27 28 30 32 32 30 27 25 25 25 27 28 28 28 27 25 24 23 22 21 19 18 16 16 17 19 20 20 21 21 21 22 22 22 22 22 22 21 21 21 22 22 22 22 22 23 23 23 22 21 21 20
36 35 32 31 30 30 29 28 26 26 26 27 29 30 31 31 30 30 29 28 27 27 27 28 27 27 26 27 27 28 28 27 27 27 29 31 33 34 33 31 28 25 24 24 25 26 27 26 25 25 24 22 19 17 15 15 16 18 20 21 21 21 21 21 21 22 23 23 23 23 23 22 22 21 21 21 21 21 21 22 22 22 22 22 21 21
33 32 31 30 29 29 29 28 27 26 26 27 28 29 30 31 30 30 29 28 28 28 28 28 28 28 28 28 29 30 30 30 30 31 32 34 35 34 32 29 26 24 23 24 25 26 26 27 27 26 24 19 14 12 13 15 18 22 25 25 25 24 23 22 22 22 23 23 23 23 23 23 22 22 21 21 20 20 20 20 20 20 21 21 21 21
29 29 30 30 28 27 27 28 28 27 27 27 27 27 28 29 30 30 30 29 29 28 28 27 28 30 31 31 31 31 32 33 33 33 33 33 32 30 27 24 23 23 24 24 25 26 27 28 28 26 22 17 15 15 17 20 24 28 30 30 29 28 27 26 25 24 24 23 23 23 22 22 22 21 21 21 21 20 20 19 19 19 19 19 20 20
30 30 30 30 28 27 26 27 28 28 28 28 28 27 26 26 27 29 30 30 29 29 29 30 31 33 34 34 33 32 32 32 31 30 29 28 26 25 23 22 23 24 25 25 25 26 27 28 28 27 26 25 24 25 26 27 29 30 31 31 31 30 30 29 29 28 27 25 24 23 22 22 21 21 21 20 21 21 20 20 20 19 19 19 19 19
31 30 29 28 27 27 27 28 29 29 29 28 29 29 27 25 25 26 28 30 31 32 34 35 36 35 34 35 34 34 32 30 29 27 26 25 23 22 22 23 24 24 24 24 24 25 26 28 29 30 31 30 30 30 30 29 29 28 28 28 29 30 30 30 30 29 28 26 25 24 23 22 21 21 20 20 20 20 20 20 20 20 20 20 20 20
30 28 28 28 28 28 29 30 30 29 27 26 27 27 27 26 26 28 31 33 34 35 36 38 38 37 36 35 35 34 31 28 26 25 24 23 22 22 22 22 22 21 22 23 24 26 27 29 30 31 31 30 30 29 28 27 26 25 25 26 27 28 29 29 29 29 28 27 26 25 24 24 23 22 21 20 20 20 20 20 20 21 21 21 21 21
28 28 28 28 28 29 28 28 27 26 25 25 26 27 28 28 29 32 35 37 37 35 34 35 37 38 38 36 34 31 27 25 24 23 23 23 23 23 24 26 26 26 27 28 29 30 31 31 30 30 29 29 29 28 27 26 25 25 24 25 26 27 28 29 29 28 28 28 27 27 26 26 25 24 24 22 21 20 20 20 20 20 21 21 21 21
27 27 27 28 28 28 27 27 27 27 27 27 27 28 29 30 31 34 36 37 36 33 32 34 36 36 36 34 32 28 24 22 22 23 25 26 28 29 31 33 34 34 34 33 33 33 32 30 28 27 27 27 28 28 27 27 27 26 25 24 25 26 28 28 28 28 28 28 27 27 27 26 26 26 25 25 23 22 21 20 20 20 21 21 21 21
28 28 28 29 29 29 29 28 29 29 29 29 29 29 31 32 32 33 33 34 33 32 31 32 33 34 33 33 29 25 22 22 23 26 29 32 34 34 35 35 35 35 35 34 33 32 30 28 27 26 26 27 27 27 28 28 29 28 26 25 25 26 27 28 28 28 28 27 27 26 26 26 26 26 25 25 25 25 23 22 21 20 20 20 20 20
28 28 29 31 32 32 32 31 31 31 31 31 32 32 32 32 32 32 31 31 31 31 30 29 30 30 31 30 27 24 23 23 26 30 33 36 37 37 36 33 32 32 32 32 32 31 30 29 28 28 27 27 27 28 28 29 29 28 27 25 25 26 27 28 28 28 28 27 27 26 26 26 25 25 25 25 26 26 25 24 22 21 20 20 20 20
29 29 29 31 32 33 32 32 32 33 34 34 35 35 34 32 31 30 30 30 30 31 30 30 31 31 31 31 29 26 24 25 29 32 33 34 35 36 35 32 31 32 32 32 32 31 30 30 29 29 28 27 27 28 28 29 28 27 27 26 26 27 28 28 29 29 29 28 28 27 26 26 25 25 25 25 26 26 25 24 23 22 21 20 20 20
30 30 30 31 32 33 33 34 34 36 36 36 36 36 35 33 32 31 31 31 32 33 33 35 35 33 30 26 24 24 26 28 30 30 30 30 31 33 33 30 29 29 30 30 29 29 29 28 28 27 27 27 27 28 28 28 28 27 27 27 28 28 29 30 30 31 30 30 29 28 27 26 25 24 24 24 25 25 25 24 24 23 21 20 19 20
29 29 29 30 31 33 34 35 35 36 37 37 37 36 34 33 33 33 35 37 37 37 38 37 33 29 24 24 27 29 30 29 28 27 27 28 29 30 30 28 27 28 28 28 27 26 25 25 26 26 27 27 28 29 29 29 28 28 28 28 28 29 30 31 31 32 31 31 30 29 29 28 27 26 25 25 24 25 25 25 24 23 22 20 19 20
28 28 28 28 30 32 35 36 37 37 38 38 37 35 34 34 35 37 39 41 41 40 38 31 25 22 24 29 31 31 29 26 25 25 26 27 29 29 29 27 27 27 28 27 26 25 24 24 26 27 28 29 30 30 30 30 29 29 29 28 29 29 30 31 31 31 31 31 31 31 30 29 28 27 26 25 25 25 25 25 25 25 23 21 20 19
26 27 27 27 29 32 35 37 38 37 36 35 33 33 33 34 36 39 40 41 39 35 29 24 23 25 29 30 31 29 27 24 23 24 26 27 29 30 29 27 26 27 26 26 25 24 25 26 27 29 30 31 31 31 31 30 29 28 28 28 27 27 27 27 26 27 27 27 28 30 30 29 28 28 27 27 27 26 26 26 26 26 24 22 20 19
25 27 28 29 31 33 35 35 35 33 31 30 29 30 32 33 35 36 37 35 31 26 23 24 26 29 30 30 29 27 25 23 22 24 25 26 28 30 29 27 26 26 26 25 26 26 27 29 30 31 32 32 31 31 30 29 27 26 24 23 23 23 23 22 22 22 23 24 24 25 26 26 27 27 27 27 26 26 25 26 26 25 24 22 21 19
26 29 30 31 32 32 32 31 30 29 29 29 30 31 31 32 32 31 29 26 24 24 26 28 30 31 30 29 28 26 24 23 23 24 25 25 27 28 27 25 25 26 27 27 28 28 29 30 31 31 31 31 31 29 27 25 22 21 20 20 20 21 22 22 22 22 22 22 22 22 22 23 23 23 23 24 24 24 24 25 25 25 24 22 20 19
28 29 30 29 28 27 27 27 28 29 30 31 32 32 33 33 32 30 28 27 28 29 30 30 30 30 29 28 27 25 25 24 24 24 24 23 24 26 25 25 25 26 28 28 28 28 29 30 31 31 31 30 28 26 23 21 19 19 19 19 20 21 22 22 22 23 23 24 23 23 22 21 20 18 17 17 18 19 21 22 23 24 23 21 20 19
26 26 26 25 25 26 27 30 31 32 31 32 32 33 33 32 31 31 31 31 30 30 29 29 29 29 29 27 26 25 25 25 25 23 21 21 23 24 25 25 25 25 26 28 28 28 29 29 30 30 30 28 26 23 21 20 20 20 20 20 21 22 22 22 22 22 22 22 22 22 22 21 19 17 14 12 12 12 14 17 19 20 19 19 19 19
23 23 24 25 27 30 32 33 33 31 30 29 28 27 27 27 28 28 29 28 28 28 28 28 28 28 28 26 25 25 25 25 24 22 20 20 21 23 25 25 24 25 26 28 28 28 28 28 28 29 28 26 24 22 21 21 20 20 20 20 21 21 21 21 20 20 20 19 19 19 20 20 20 18 16 15 14 13 12 12 14 15 16 16 16 17
22 24 27 30 32 34 34 32 30 29 27 26 25 24 24 25 26 27 27 27 27 27 27 26 26 26 26 25 25 25 25 24 22 20 19 19 20 23 24 25 25 26 27 28 28 28 27 26 27 27 26 25 24 23 22 21 20 19 19 19 18 18 18 18 18 18 19 18 18 18 18 18 18 18 17 16 16 15 14 13 13 14 14 13 13 13
27 30 33 35 35 34 31 29 28 27 27 27 26 25 24 24 25 26 27 26 26 25 25 25 25 24 24 25 26 26 24 22 20 19 19 19 21 23 25 26 27 26 26 26 27 27 26 25 25 24 24 24 24 24 23 22 21 20 20 20 20 20 19 19 20 20 20 19 19 18 18 17 17 17 17 16 16 15 15 14 15 15 15 14 13 13
32 34 36 36 34 32 30 28 28 28 28 28 26 24 24 24 24 25 25 24 24 24 24 24 24 24 24 25 26 25 23 22 20 20 20 21 23 25 26 26 26 25 24 24 25 25 25 26 26 25 25 25 25 25 24 23 23 24 24 24 24 24 23 23 22 22 21 20 19 18 17 17 16 16 16 16 16 16 15 16 17 17 17 16 16 16
35 36 35 34 32 30 28 27 27 27 27 27 25 24 23 23 22 22 21 21 22 23 24 24 24 24 24 25 24 23 23 24 24 23 23 23 23 25 25 25 24 23 23 23 23 23 25 26 28 28 27 27 26 26 25 25 25 26 26 26 26 26 26 25 24 23 21 20 18 17 16 16 15 15 15 16 16 16 16 17 17 18 17 17 16 16
35 35 33 31 29 27 26 25 26 26 26 25 24 23 22 22 21 20 19 20 22 23 24 25 25 25 25 25 25 25 25 26 26 25 23 22 23 24 24 24 24 24 24 24 23 22 23 25 28 30 29 28 27 27 26 25 25 25 26 26 27 27 27 26 25 24 22 20 18 16 15 14 14 13 13 14 15 15 16 16 16 16 16 16 16 16
34 32 30 28 26 25 25 24 24 24 24 23 22 21 22 22 22 21 21 22 23 24 24 24 25 26 26 27 27 27 27 27 26 24 22 22 22 23 23 24 25 25 26 25 24 23 23 24 27 29 29 29 28 27 26 25 25 25 25 26 27 28 28 28 27 25 23 21 18 16 15 13 12 11 11 12 12 13 14 14 14 14 15 16 16 16
31 29 27 26 25 24 24 23 22 22 20 20 19 20 21 21 22 22 23 23 24 24 24 24 25 26 27 27 27 27 27 25 23 21 20 20 21 22 23 23 24 24 25 25 24 23 23 24 25 27 29 29 29 28 26 25 25 25 25 26 27 28 29 28 27 26 24 21 18 16 14 12 11 11 11 11 11 12 12 12 12 13 14 15 17 17
29 27 26 25 24 23 22 21 21 20 20 19 19 20 20 21 21 22 22 22 23 24 24 25 25 25 25 25 26 26 25 23 20 18 17 18 18 20 21 21 21 22 22 23 23 24 24 24 25 26 28 29 29 28 27 26 25 26 27 27 28 29 29 28 27 25 23 21 19 16 14 13 12 12 12 13 14 14 13 12 11 12 13 14 16 17
26 25 23 23 22 22 21 21 21 21 22 21 20 20 19 19 20 20 21 22 23 24 24 24 23 22 21 21 21 22 22 20 18 16 15 15 16 18 19 20 20 20 21 22 23 25 26 27 27 27 27 28 29 29 29 28 27 27 28 29 29 29 28 26 25 24 22 21 19 17 15 14 13 13 13 15 16 16 15 12 10 10 12 13 14 15
23 22 21 20 20 20 20 20 21 22 23 21 19 17 17 17 19 20 22 23 23 24 23 22 20 19 17 17 18 18 18 17 16 15 15 15 15 17 18 19 19 19 20 22 24 26 27 29 29 28 27 27 27 27 29 29 29 30 30 30 30 29 27 24 23 22 21 20 18 16 14 14 13 14 14 15 16 16 15 12 10 10 11 12 12 13
20 19 19 19 19 19 20 21 21 22 23 22 21 20 20 21 22 23 23 23 23 22 21 19 18 16 15 14 14 15 15 15 15 15 15 16 16 17 18 19 18 18 18 20 22 24 26 27 28 28 27 27 27 27 29 30 30 30 31 30 29 27 25 23 21 20 19 17 16 14 13 13 13 14 15 16 16 16 15 14 13 12 12 12 13 13
18 18 18 18 19 19 20 21 22 23 23 23 24 24 24 24 24 24 23 22 21 20 19 17 16 14 13 13 13 13 13 13 14 14 16 17 18 18 18 18 18 18 18 18 19 21 22 24 25 25 26 27 29 29 29 29 29 30 30 30 28 26 24 22 20 18 16 16 15 14 14 14 15 15 16 16 17 17 17 17 16 15 14 14 14 14
18 18 18 18 19 19 20 21 22 23 23 23 23 23 23 23 23 23 22 21 20 18 17 15 14 13 13 13 13 13 13 13 13 14 16 18 18 18 17 18 18 19 19 19 19 20 20 21 23 24 25 27 28 29 29 29 29 29 29 29 28 26 23 21 19 17 15 15 15 15 16 16 16 17 17 17 17 18 18 17 16 15 14 14 15 15
18 18 18 19 19 19 20 21 22 22 22 22 22 22 22 22 22 22 22 21 19 17 16 14 14 13 13 14 14 14 13 12 13 15 17 18 19 18 16 16 17 19 20 20 21 21 21 22 23 24 26 27 27 28 28 28 27 26 26 26 27 26 24 22 20 18 17 16 16 16 17 18 18 18 18 18 18 17 16 15 14 12 11 11 12 13
18 18 19 19 19 19 20 21 21 22 22 22 21 21 21 21 22 22 22 21 19 17 15 14 14 14 15 15 15 14 13 13 14 17 19 20 20 17 14 13 15 17 18 20 20 21 21 22 23 24 25 26 27 28 28 26 24 23 23 24 26 26 25 24 21 20 19 19 18 17 17 18 18 19 19 19 18 16 14 13 11 10 10 9 9 10
18 18 18 18 18 18 19 20 21 21 21 21 21 21 21 21 22 22 21 20 19 18 16 14 14 15 17 17 16 15 14 16 19 21 22 22 20 17 13 12 13 15 17 18 20 21 21 22 23 24 25 25 26 26 26 23 21 21 22 23 24 26 26 25 23 21 20 19 19 18 17 18 18 18 18 17 16 14 12 10 9 9 8 8 8 7
18 18 18 18 18 18 19 20 20 21 21 21 20 21 21 22 21 21 20 20 19 18 16 14 14 16 18 18 17 16 18 21 22 24 24 22 18 15 13 12 13 15 16 18 20 22 22 22 22 22 21 21 21 21 20 20 20 20 21 21 22 23 24 23 22 21 20 19 18 17 16 16 16 16 16 14 13 12 10 9 8 7 7 7 7 7
17 17 17 17 18 18 19 19 20 20 20 20 20 21 22 22 21 20 19 19 19 18 16 14 15 18 19 18 17 19 22 24 25 24 23 20 17 14 13 13 14 15 16 17 18 19 21 21 20 18 16 15 15 16 17 18 19 20 20 20 19 18 18 19 19 19 18 17 16 16 15 15 15 14 13 12 11 10 9 8 7 7 7 7 8 9
17 17 18 18 18 19 19 19 19 20 20 20 21 22 22 21 20 19 18 19 19 18 16 14 15 18 18 17 18 21 24 25 26 25 22 20 17 14 13 12 13 13 14 14 15 15 16 17 16 15 13 13 13 14 15 16 18 19 19 17 16 15 15 16 17 17 17 17 16 16 15 14 13 12 12 10 9 9 9 9 7 7 7 9 10 11
17 17 17 18 19 19 19 20 20 20 20 21 21 22 21 20 18 18 18 19 19 17 15 14 15 17 17 17 18 21 23 25 26 25 23 21 18 16 14 13 12 12 12 12 12 12 12 12 11 11 10 11 13 13 14 15 16 17 17 15 14 13 14 15 16 17 17 17 17 17 16 15 14 12 11 10 8 7 8 8 8 7 8 10 11 13
16 17 17 18 19 20 20 20 20 21 21 21 21 20 19 18 17 17 18 18 18 16 13 14 15 16 16 17 19 21 22 23 24 24 23 21 18 16 14 13 13 12 11 11 11 11 10 8 7 6 7 10 12 14 14 14 14 15 14 14 13 13 14 15 15 16 16 16 17 17 17 17 16 14 13 11 9 7 6 7 7 8 9 11 13 14
16 17 17 18 19 20 21 21 21 20 20 20 20 19 18 17 17 17 18 18 16 13 11 14 16 17 17 18 20 22 22 23 23 23 22 20 18 16 14 13 13 13 12 11 11 11 9 5 3 3 5 9 12 13 13 13 13 13 13 12 13 13 14 15 15 15 15 15 16 17 18 18 17 16 14 13 11 9 8 7 8 9 10 11 12 12
16 17 17 18 19 20 21 20 20 19 19 18 18 19 18 18 17 17 17 16 13 11 11 13 15 17 19 20 21 22 22 22 22 22 21 19 17 15 14 14 14 15 14 14 13 13 10 6 3 1 3 6 8 9 10 11 12 12 12 12 12 13 13 14 15 15 14 14 15 17 18 18 17 16 14 13 12 11 10 9 9 9 9 9 9 9
16 17 17 18 19 19 19 19 18 17 17 17 17 18 18 18 18 17 16 14 12 11 12 13 15 17 18 19 20 21 21 21 21 21 21 18 16 14 15 15 16 17 17 17 16 16 14 11 7 4 3 3 5 7 9 10 11 12 12 12 12 12 13 14 15 15 15 15 16 17 18 17 16 15 14 13 12 12 11 9 8 8 7 7 6 6
Wind_Direction
301 302 303 302 301 301 301 304 305 307 309 312 314 316 318 320 320 321 322 322 323 322 322 320 320 319 319 321 322 322 320 318 313 309 307 304 303 302 302 302 303 303 303 303 305 306 308 309 308 307 306 303 301 299 298 297 296 296 296 296 295 294 292 291 290 289 287 284 282 280 279 278 277 277 276 274 272 271 270 269 268 267 266 266 265 264
300 301 301 301 300 300 301 303 305 306 308 311 314 317 320 321 322 323 324 324 323 321 319 317 315 315 315 318 321 322 322 320 316 313 310 308 306 305 304 303 303 303 304 305 306 308 309 308 307 306 304 302 300 298 297 296 295 295 294 293 293 292 291 290 290 289 289 287 286 285 283 280 278 277 276 274 273 272 272 272 271 270 269 268 266 264
300 300 299 300 299 299 300 303 305 307 310 312 315 319 321 322 322 322 322 322 320 317 314 311 310 310 312 315 319 322 322 321 319 317 315 313 311 309 307 305 304 303 304 305 306 307 306 305 304 303 302 300 298 297 295 294 293 292 292 291 291 291 290 288 287 286 286 286 286 285 284 283 281 280 279 277 276 275 274 273 272 271 270 269 267 265
298 298 298 298 298 298 300 302 306 309 312 314 317 320 321 320 319 318 317 316 314 311 310 309 308 308 310 314 318 321 322 322 320 319 316 315 314 312 309 306 304 303 303 304 305 305 304 303 302 300 299 298 296 295 294 293 291 291 290 291 292 293 292 292 290 289 288 286 285 283 281 280 281 282 282 282 281 279 277 275 274 273 272 271 269 268
295 295 296 297 298 299 301 304 308 311 314 315 317 318 318 317 315 314 313 312 311 310 310 310 309 309 311 314 317 319 320 320 319 317 315 314 313 312 310 307 304 302 302 303 304 304 303 303 301 300 298 296 295 294 292 291 290 291 293 296 298 299 300 299 297 294 291 289 286 283 281 279 280 281 282 282 282 281 279 278 277 276 275 274 273 272
292 293 295 296 298 300 303 306 309 311 313 314 314 314 314 313 312 312 312 312 313 313 314 314 312 312 313 314 315 316 316 315 314 312 311 311 311 312 311 308 303 300 299 301 303 304 304 303 301 299 297 296 294 293 292 291 293 296 302 306 309 309 308 306 303 300 296 293 290 287 285 284 283 283 282 281 280 280 279 278 276 276 276 275 274 273
291 294 295 297 299 300 302 305 308 310 311 311 311 311 312 311 311 312 313 315 316 317 317 316 315 314 313 313 312 311 310 308 306 304 304 305 308 311 312 309 303 298 298 301 304 305 304 303 301 299 298 296 296 295 295 296 300 307 314 318 318 317 316 314 311 307 303 299 296 292 290 288 286 285 283 282 281 280 278 277 275 274 273 273 272 272
293 297 299 299 301 302 303 303 306 308 309 308 309 311 311 311 312 313 315 318 320 320 318 316 314 312 310 309 308 306 303 300 297 295 296 299 304 308 311 309 304 300 300 303 304 304 304 303 302 299 297 295 295 297 300 304 310 316 319 321 322 322 321 320 317 314 310 305 301 297 294 291 289 286 284 283 282 281 279 277 275 274 272 271 271 270
296 299 299 299 300 302 303 303 304 306 308 308 308 309 310 311 312 313 315 317 318 318 316 314 311 308 305 303 301 300 298 296 293 292 293 297 302 306 309 308 305 302 301 300 300 300 300 301 301 298 295 294 296 304 310 313 315 317 318 318 318 319 319 318 317 315 313 310 306 302 298 295 292 290 287 285 284 282 281 280 279 277 275 273 272 271
294 295 296 299 300 300 300 301 303 305 307 308 308 308 309 311 313 314 315 315 314 313 312 309 307 306 305 303 302 301 300 299 298 297 298 301 305 309 310 307 302 297 294 292 293 296 298 300 300 301 303 308 314 317 316 315 315 315 316 315 315 314 314 313 312 312 311 309 307 305 302 300 297 295 293 290 287 285 283 282 282 281 279 277 276 275
292 293 296 298 299 298 297 298 301 305 309 310 310 309 309 311 313 313 311 310 308 308 308 307 308 308 309 310 310 310 310 310 310 310 311 313 315 314 308 300 291 285 283 285 291 296 299 301 303 308 314 317 318 316 314 313 313 314 314 314 314 313 312 310 309 308 307 305 303 302 302 302 302 301 299 296 292 288 284 282 281 280 280 279 278 277
294 296 297 296 296 297 297 299 302 307 310 312 312 311 310 310 310 308 304 302 302 304 307 309 311 312 312 313 314 316 318 319 321 322 322 320 316 308 297 288 281 279 280 285 292 298 301 304 309 314 317 316 314 312 311 311 311 311 310 310 310 310 309 308 307 305 304 301 299 298 299 300 302 303 303 302 299 294 289 285 282 279 278 278 277 278
297 296 295 294 294 296 298 300 303 306 308 309 308 307 307 307 307 305 303 300 300 303 307 309 311 311 312 312 313 316 319 322 322 320 317 312 304 297 291 289 288 290 293 297 300 302 305 309 313 316 316 315 313 312 311 311 309 308 306 304 303 302 302 302 302 302 301 300 298 297 297 298 299 300 301 302 301 299 296 291 286 281 278 277 276 276
295 293 292 293 294 295 297 299 301 301 302 302 302 303 304 306 308 309 307 304 302 303 305 306 307 308 310 311 313 316 318 317 314 310 305 302 300 300 303 306 310 312 312 312 310 310 311 313 315 316 315 314 313 312 311 310 308 306 303 300 298 297 296 297 297 298 298 298 297 297 296 296 297 298 298 299 299 298 297 294 290 285 281 277 275 275
292 292 292 292 293 294 295 296 297 297 298 299 300 302 305 307 310 312 310 306 304 304 303 303 304 305 306 309 312 314 313 308 304 302 302 303 304 308 312 315 317 317 318 317 316 316 316 317 316 315 313 311 310 309 309 309 308 307 304 299 294 293 294 295 296 296 295 295 295 295 295 295 295 295 296 296 296 296 295 294 291 288 284 280 276 274
290 291 291 291 292 293 294 295 296 297 298 299 300 301 304 307 311 313 311 306 304 303 302 302 302 302 303 306 308 309 306 302 302 305 308 309 310 311 315 318 319 319 318 317 316 316 316 315 313 311 309 308 307 307 307 308 308 308 305 299 293 291 292 293 294 294 293 293 293 293 293 292 292 292 292 293 293 293 293 292 290 288 285 281 278 275
289 290 289 290 291 293 296 298 297 296 297 298 298 299 301 305 308 310 307 303 301 300 299 299 298 298 299 301 302 301 300 303 308 312 314 314 314 314 316 317 317 316 313 312 312 311 311 310 309 307 306 306 306 306 306 307 307 306 304 298 292 289 290 291 293 293 292 291 291 292 291 291 290 289 288 289 290 291 291 291 288 286 284 281 279 276
288 288 289 290 292 294 296 297 297 296 296 295 296 297 299 302 304 305 303 300 298 297 296 296 294 292 292 292 294 297 302 310 315 317 317 315 314 315 316 315 313 311 309 307 307 307 307 306 306 305 305 304 304 304 304 304 304 303 302 299 294 289 288 288 289 289 289 289 290 291 291 290 289 287 286 286 287 289 290 290 287 284 282 280 278 276
287 288 289 290 292 293 294 294 295 295 294 294 294 295 296 299 301 302 301 300 298 297 296 295 291 288 285 287 293 301 310 316 319 319 317 313 312 313 314 313 309 307 305 304 303 304 304 304 304 303 302 301 301 301 301 301 301 300 300 297 294 290 287 285 284 283 284 286 288 289 289 288 287 286 285 285 286 287 289 289 287 283 279 277 276 275
287 288 288 290 293 294 294 294 295 295 295 294 294 294 294 297 299 300 301 301 300 299 297 293 288 285 287 295 302 309 316 321 321 317 312 309 309 310 312 311 308 305 302 300 300 301 301 301 300 300 299 298 298 298 299 299 299 298 298 296 294 292 289 286 284 282 282 284 285 286 285 285 285 285 285 285 286 287 288 289 287 283 278 275 274 273
288 289 292 296 297 297 297 298 299 298 297 297 296 295 295 298 300 301 302 301 299 297 294 288 286 293 303 310 314 318 322 322 317 312 309 308 307 308 310 310 307 304 300 299 298 299 299 298 297 297 296 296 297 298 298 298 298 298 297 297 296 294 293 291 290 288 287 286 284 282 282 282 283 284 284 284 285 285 286 286 284 282 278 273 271 271
292 295 300 302 302 300 300 301 301 301 300 299 298 298 299 300 301 300 300 297 295 292 290 291 298 306 313 316 318 320 321 318 313 310 309 307 306 307 309 309 306 302 298 297 298 298 298 297 297 296 296 297 297 298 299 299 299 299 299 299 299 299 300 301 300 297 295 291 286 282 281 281 283 283 282 282 282 282 282 283 282 280 277 272 268 268
298 299 302 303 303 302 302 303 304 305 305 305 304 304 304 304 303 300 298 295 294 296 301 307 312 315 317 317 318 318 317 315 312 310 308 305 304 306 308 308 305 301 298 298 299 299 299 298 297 297 297 298 299 300 301 302 303 304 305 306 308 309 309 308 306 304 300 296 292 289 287 285 284 283 282 281 280 279 279 278 278 278 275 270 267 265
300 300 301 301 301 302 303 305 308 309 309 307 305 303 303 303 303 303 303 304 307 311 314 316 317 317 316 316 316 315 314 313 312 310 308 305 305 306 307 307 304 301 299 299 300 300 300 299 299 299 300 301 302 305 308 310 312 313 314 314 313 311 310 310 311 311 310 308 305 302 298 293 288 284 282 280 278 276 274 272 272 272 271 268 266 265
297 296 296 297 298 300 302 304 305 305 304 302 300 298 298 297 297 299 303 309 313 315 316 316 315 314 314 315 314 313 313 313 313 312 310 307 306 306 306 304 302 300 300 300 300 301 302 302 302 302 303 306 309 313 316 318 319 318 316 312 308 306 307 311 315 318 318 318 315 312 308 302 295 288 283 281 279 276 272 270 269 270 270 267 265 264
290 289 289 290 292 294 296 296 297 299 299 298 297 297 298 298 298 301 304 308 311 313 314 314 313 313 314 314 314 313 314 315 315 315 313 310 307 306 304 302 301 301 302 302 302 303 304 304 305 306 308 312 315 318 319 319 316 313 310 306 302 300 301 305 309 313 315 315 315 314 313 309 304 300 302 306 304 294 282 273 270 270 269 267 264 262
285 283 285 288 291 294 296 298 299 299 299 298 299 301 303 305 306 307 307 308 309 311 312 312 312 313 314 314 313 313 314 316 318 319 318 313 308 304 302 302 303 304 305 304 304 305 306 306 307 309 313 316 318 319 318 316 314 311 310 308 305 303 302 304 305 307 308 309 310 312 312 310 306 304 309 319 324 320 305 284 270 265 265 264 263 261
286 288 291 295 298 300 302 302 301 300 300 301 303 306 308 309 307 304 303 305 307 309 310 311 311 311 312 311 311 312 315 317 320 322 320 313 305 300 300 302 304 306 307 307 307 308 308 308 309 312 314 317 318 319 319 320 321 322 324 325 324 323 321 320 318 315 313 311 309 309 309 307 304 301 303 310 317 319 311 292 275 266 265 269 270 268
294 298 301 303 304 305 305 303 300 299 301 305 307 309 308 305 302 300 300 303 306 308 309 310 310 310 309 310 311 313 315 317 320 321 317 310 303 300 301 305 308 310 311 311 311 311 311 310 311 312 314 316 318 321 325 329 334 337 340 341 342 342 339 335 330 325 320 315 312 309 308 306 303 299 297 300 305 310 307 295 283 277 277 280 282 280
302 304 305 306 307 306 304 302 300 301 303 306 308 307 305 301 298 296 298 300 303 305 307 309 309 309 309 310 312 313 313 315 316 316 313 309 305 304 306 310 312 314 315 315 316 315 312 312 312 314 315 318 321 325 331 335 339 340 341 341 342 342 341 338 334 329 325 320 316 312 309 306 303 299 294 291 293 296 296 291 286 285 286 289 290 288
306 306 307 307 308 307 306 304 303 302 303 304 305 304 302 298 295 293 294 297 300 304 306 308 308 309 308 309 310 310 309 310 312 313 311 309 307 307 310 312 314 315 314 316 317 317 313 312 314 318 320 322 325 329 332 335 336 336 336 336 336 337 338 338 336 334 330 326 321 317 312 309 305 300 294 289 287 285 282 281 282 285 288 292 293 291
306 306 307 308 309 309 307 305 303 302 302 302 302 302 300 297 295 294 295 297 301 304 306 307 308 307 306 305 304 303 303 306 310 312 311 308 307 307 309 310 310 310 310 310 312 312 309 308 313 319 323 324 326 328 330 331 332 331 331 331 331 332 335 336 336 336 334 331 327 322 318 313 309 303 298 291 287 282 277 276 278 281 284 288 290 288
306 307 308 309 309 308 306 304 303 302 302 303 303 302 300 298 297 297 297 299 302 304 306 307 306 305 304 303 302 301 301 305 309 312 311 308 306 306 307 308 308 309 310 310 311 309 307 305 310 317 321 323 325 325 326 327 328 328 328 327 327 329 332 334 335 336 336 334 330 325 321 317 313 310 305 300 294 287 280 277 277 280 282 283 283 282
307 308 308 308 308 307 307 307 308 309 309 308 306 302 299 298 296 296 297 300 303 306 307 306 304 303 303 303 303 303 305 309 313 316 314 312 309 309 310 311 312 313 315 315 315 313 311 309 311 314 317 320 322 322 322 323 325 326 327 326 325 327 330 333 334 335 336 335 332 328 323 320 318 318 320 319 314 306 295 287 284 283 281 280 278 276
308 308 308 308 308 309 311 314 317 319 318 313 307 300 296 294 293 294 297 302 306 309 308 306 304 302 302 302 302 304 307 314 320 323 322 321 318 317 317 317 318 319 318 317 316 315 312 312 312 313 315 316 317 319 320 322 324 326 328 328 327 328 330 332 334 335 336 336 334 331 327 323 322 325 329 332 332 325 314 301 290 283 279 277 274 271
307 307 308 309 311 312 314 318 322 323 319 311 302 295 290 289 291 295 300 306 309 309 308 306 304 303 303 302 303 304 309 316 323 327 329 330 328 325 322 321 322 321 320 318 317 316 314 314 314 313 313 313 313 315 320 324 327 328 328 329 329 330 333 335 336 336 336 336 335 333 330 326 325 327 332 337 337 334 327 316 300 286 281 279 277 273
308 310 311 313 314 314 314 317 319 319 316 310 305 299 297 298 300 304 308 310 310 309 308 307 306 306 305 305 305 306 310 317 322 328 331 333 332 329 325 322 321 321 320 318 317 317 315 314 313 313 311 310 310 312 316 323 326 328 328 329 330 332 336 339 340 339 337 337 337 336 333 330 330 332 336 338 337 334 330 325 313 299 290 286 282 278
312 313 315 316 316 314 312 312 313 313 312 311 312 313 313 313 314 314 314 313 311 310 309 309 309 309 309 307 307 309 312 317 322 325 328 330 330 328 324 321 319 320 319 318 318 317 315 312 310 310 310 309 309 310 314 318 321 323 325 329 332 335 338 342 343 342 341 341 341 341 341 339 339 340 340 338 334 329 324 318 309 300 292 287 283 279
314 315 315 315 313 310 308 308 309 310 311 311 313 314 316 317 317 316 316 314 313 312 312 313 314 314 313 312 312 313 315 318 321 322 323 325 326 325 322 319 318 318 319 318 317 316 314 311 309 308 308 308 308 311 315 317 318 319 323 329 334 338 342 344 346 346 346 347 348 349 349 348 347 344 341 337 332 326 321 314 307 299 293 287 283 280
314 314 313 312 310 308 307 308 310 312 312 312 313 314 316 317 317 317 317 316 315 316 317 317 317 316 315 315 316 317 319 319 319 319 320 322 322 320 318 315 315 316 317 317 315 313 311 309 308 307 307 307 308 310 313 314 316 319 322 326 330 335 342 346 348 348 349 349 349 349 349 349 347 344 341 336 332 327 322 317 311 305 298 292 289 287
313 312 311 311 311 310 310 311 312 313 313 313 314 315 316 318 320 320 320 319 319 320 321 321 319 317 317 318 320 320 319 317 315 315 316 316 315 312 309 308 309 311 313 312 311 310 309 309 309 308 307 307 306 306 308 311 317 323 326 327 330 335 342 346 347 346 344 342 341 341 342 342 342 340 338 336 333 330 328 326 324 320 314 306 301 299
311 310 311 311 311 311 311 311 312 312 312 313 313 314 316 319 322 323 323 323 324 325 325 324 322 320 321 323 323 319 314 310 309 310 312 311 309 304 299 298 301 304 305 305 304 303 302 302 303 303 301 300 299 300 303 311 321 330 332 334 336 339 341 344 345 343 339 335 333 333 333 334 334 335 335 335 335 336 336 338 338 337 334 328 322 317
310 309 310 310 311 310 310 311 311 312 313 312 311 312 316 320 322 324 325 326 327 327 327 325 324 324 324 322 319 313 307 305 306 309 311 312 309 303 292 285 285 288 291 292 293 292 292 293 292 290 290 292 294 297 302 313 326 336 341 343 341 338 335 340 345 345 341 336 334 332 331 330 329 330 331 334 337 340 343 346 348 349 347 342 337 331
308 308 309 309 310 309 310 311 312 314 313 310 309 311 315 319 322 324 326 327 328 328 327 325 326 326 324 317 312 308 305 306 309 312 316 317 315 307 292 280 274 275 278 282 285 287 291 294 295 297 298 298 299 303 311 321 331 338 343 346 345 343 342 346 349 349 346 343 340 337 334 331 329 329 331 334 338 343 348 352 354 354 354 353 349 342
308 308 308 309 309 309 310 311 313 313 311 308 307 310 315 319 322 325 326 327 327 326 325 327 328 326 318 312 309 307 307 309 313 318 321 323 322 315 303 292 286 284 284 285 288 292 296 299 304 308 311 310 311 315 321 327 333 338 341 344 349 355 360 0 358 355 353 350 348 344 339 335 333 332 334 336 339 345 351 355 354 353 351 347 344 340
308 307 307 307 307 307 308 310 310 309 307 304 305 309 314 319 323 325 325 324 322 321 323 327 327 321 313 310 308 308 309 313 318 323 326 328 328 324 318 310 305 303 303 304 305 306 307 306 309 312 315 317 323 330 337 338 338 337 338 342 350 360 4 3 2 360 357 355 352 349 345 341 339 337 337 337 340 348 357 357 353 345 342 339 337 334
306 304 303 304 304 305 306 307 307 305 304 303 306 310 314 319 322 323 321 319 316 316 319 325 322 316 308 307 308 310 313 318 322 325 329 331 331 330 327 323 321 320 322 324 326 325 320 315 312 312 316 322 329 339 348 349 343 337 335 339 347 355 359 360 0 0 359 356 354 352 349 347 343 339 335 333 335 346 358 359 353 342 333 329 327 326
304 301 301 301 302 303 304 305 305 305 305 306 308 311 315 319 321 320 317 315 313 313 317 322 319 312 307 306 308 311 316 320 324 327 330 332 333 332 331 330 330 332 336 340 343 343 338 327 317 314 324 333 339 344 349 345 337 331 331 339 345 349 352 355 358 360 358 355 352 350 349 348 346 341 336 331 329 333 343 345 338 327 318 316 318 319
302 299 298 299 300 301 302 304 305 306 307 309 310 311 314 318 320 319 317 316 314 315 321 322 317 311 308 308 309 312 317 321 325 329 332 334 334 334 334 334 336 339 343 349 354 358 360 353 331 324 355 0 358 353 345 332 324 325 333 341 346 348 350 354 358 0 359 354 348 345 346 347 347 345 342 337 333 329 327 323 317 312 310 312 316 319
301 298 297 298 298 300 302 304 305 306 307 307 306 307 309 314 318 320 321 321 322 323 325 320 313 308 307 308 311 314 318 322 326 331 335 336 336 336 338 340 342 345 348 352 357 4 16 33 57 76 38 21 7 350 331 321 320 327 338 345 349 351 353 356 360 1 359 352 345 342 343 345 347 349 350 348 343 338 333 327 320 316 317 319 322 324
301 298 297 298 299 302 304 306 306 306 304 302 300 300 304 310 315 320 323 326 330 331 325 316 308 304 306 309 313 315 319 323 327 332 337 338 339 341 344 346 348 349 350 353 357 2 10 22 40 65 58 3 333 322 320 323 329 336 343 349 353 354 356 359 1 0 356 348 343 341 342 346 351 356 359 359 357 355 353 351 347 343 340 339 338 338
Height
1484 1483 1482 1482 1481 1479 1477 1476 1476 1474 1473 1472 1471 1470 1469 1468 1467 1466 1465 1464 1462 1461 1460 1459 1458 1457 1456 1455 1454 1453 1452 1451 1451 1450 1449 1448 1447 1447 1446 1445 1444 1444 1443 1442 1441 1440 1440 1439 1438 1437 1436 1435 1434 1433 1432 1431 1430 1429 1428 1427 1426 1425 1425 1424 1423 1422 1422 1421 1421 1420 1420 1419 1418 1417 1416 1416 1416 1415 1415 1415 1415 1414 1414 1414 1413 1413
1483 1482 1481 1480 1479 1477 1475 1475 1474 1473 1471 1470 1469 1468 1467 1466 1464 1463 1462 1461 1460 1459 1458 1457 1456 1455 1454 1453 1453 1452 1451 1450 1449 1448 1447 1446 1446 1445 1444 1443 1443 1442 1441 1441 1440 1439 1438 1437 1436 1435 1434 1433 1432 1431 1430 1429 1428 1427 1426 1426 1424 1423 1423 1422 1421 1421 1420 1419 1419 1418 1417 1416 1416 1415 1415 1414 1414 1413 1413 1413 1412 1412 1412 1411 1411 1412
1481 1480 1479 1478 1477 1476 1474 1472 1472 1471 1471 1469 1467 1466 1465 1464 1462 1461 1460 1459 1458 1458 1457 1456 1455 1454 1453 1452 1451 1450 1449 1448 1447 1446 1446 1445 1444 1443 1443 1442 1441 1441 1440 1439 1438 1437 1437 1436 1435 1433 1432 1431 1430 1429 1428 1427 1426 1425 1424 1423 1422 1421 1420 1420 1419 1418 1418 1417 1416 1416 1415 1414 1414 1413 1413 1412 1411 1411 1411 1411 1410 1410 1410 1410 1410 1410
1480 1479 1477 1476 1475 1474 1473 1471 1470 1469 1468 1467 1466 1464 1463 1462 1461 1460 1459 1458 1457 1456 1456 1455 1454 1452 1451 1450 1449 1448 1448 1447 1446 1445 1444 1443 1443 1442 1441 1441 1440 1439 1438 1438 1437 1436 1435 1434 1433 1432 1431 1429 1428 1427 1426 1425 1424 1423 1422 1421 1420 1419 1418 1417 1417 1416 1415 1414 1414 1413 1413 1412 1412 1412 1411 1411 1410 1409 1409 1408 1408 1408 1408 1408 1407 1407
1479 1478 1476 1475 1473 1472 1471 1470 1469 1467 1466 1465 1464 1463 1462 1461 1460 1459 1458 1457 1456 1455 1454 1453 1452 1451 1450 1448 1447 1446 1446 1445 1444 1443 1443 1442 1441 1441 1440 1439 1438 1437 1437 1436 1436 1435 1434 1432 1431 1430 1429 1427 1426 1425 1424 1423 1422 1421 1420 1420 1419 1418 1417 1416 1415 1414 1413 1413 1412 1412 1411 1411 1410 1410 1409 1409 1408 1407 1407 1406 1406 1406 1406 1406 1406 1406
1477 1476 1475 1474 1472 1470 1469 1468 1467 1466 1465 1464 1463 1462 1461 1460 1459 1458 1456 1456 1455 1453 1452 1451 1450 1449 1448 1447 1446 1445 1444 1444 1443 1442 1441 1441 1440 1439 1438 1437 1436 1436 1435 1434 1434 1433 1432 1431 1429 1428 1426 1425 1424 1423 1422 1421 1421 1420 1419 1418 1417 1416 1416 1415 1414 1413 1412 1411 1411 1410 1409 1409 1408 1408 1407 1407 1406 1406 1405 1405 1405 1405 1404 1404 1404 1404
1475 1475 1474 1472 1471 1469 1468 1466 1466 1465 1464 1463 1461 1460 1459 1458 1457 1456 1455 1454 1453 1452 1450 1449 1448 1447 1446 1446 1445 1444 1443 1442 1441 1441 1440 1439 1438 1437 1436 1436 1435 1434 1433 1433 1432 1431 1430 1428 1427 1426 1424 1423 1422 1421 1421 1420 1419 1419 1418 1417 1416 1416 1414 1413 1412 1411 1411 1410 1409 1408 1407 1407 1406 1406 1406 1405 1405 1404 1403 1403 1403 1403 1402 1402 1402 1402
1473 1472 1472 1471 1469 1467 1466 1465 1465 1465 1464 1462 1461 1459 1457 1456 1455 1454 1453 1452 1451 1450 1449 1447 1446 1446 1445 1445 1444 1443 1442 1441 1440 1439 1438 1437 1436 1436 1435 1434 1433 1432 1431 1431 1430 1429 1428 1426 1425 1424 1423 1422 1421 1420 1420 1419 1418 1418 1417 1416 1416 1414 1413 1412 1411 1410 1409 1408 1407 1407 1406 1405 1405 1404 1404 1403 1403 1402 1401 1401 1401 1401 1401 1400 1400 1400
1472 1470 1469 1469 1468 1466 1464 1463 1463 1463 1463 1461 1460 1458 1456 1454 1453 1452 1451 1450 1449 1449 1448 1446 1446 1445 1444 1443 1443 1441 1441 1440 1439 1437 1436 1435 1434 1434 1433 1432 1431 1430 1429 1429 1428 1427 1426 1425 1424 1423 1422 1421 1419 1419 1418 1418 1417 1417 1416 1416 1415 1414 1412 1411 1410 1409 1408 1407 1406 1406 1405 1404 1403 1403 1402 1402 1401 1401 1400 1400 1400 1399 1399 1399 1399 1398
1471 1470 1468 1467 1466 1466 1464 1462 1461 1461 1461 1460 1459 1458 1456 1454 1452 1450 1449 1448 1448 1448 1447 1446 1445 1443 1441 1441 1441 1440 1439 1437 1436 1436 1435 1433 1432 1431 1431 1431 1430 1429 1428 1427 1426 1426 1425 1424 1423 1422 1421 1419 1418 1417 1417 1416 1416 1416 1415 1414 1413 1412 1411 1410 1409 1408 1407 1406 1405 1404 1403 1403 1402 1401 1401 1400 1400 1399 1399 1398 1398 1398 1398 1397 1397 1397
1469 1468 1467 1466 1465 1464 1464 1462 1460 1459 1459 1458 1457 1456 1456 1455 1453 1451 1448 1447 1446 1446 1445 1444 1443 1441 1439 1437 1437 1437 1436 1435 1433 1432 1432 1431 1430 1430 1429 1429 1428 1427 1426 1425 1425 1424 1424 1423 1421 1420 1419 1418 1417 1416 1416 1415 1415 1414 1413 1412 1411 1410 1410 1409 1408 1407 1406 1405 1404 1403 1402 1401 1400 1400 1399 1399 1398 1398 1397 1397 1397 1396 1396 1396 1396 1396
1468 1467 1466 1465 1463 1462 1461 1460 1459 1458 1457 1456 1455 1454 1453 1453 1453 1452 1449 1446 1445 1444 1443 1441 1441 1440 1438 1436 1435 1434 1434 1433 1431 1430 1429 1428 1428 1428 1427 1426 1426 1425 1424 1424 1423 1423 1422 1421 1420 1419 1418 1417 1416 1415 1414 1414 1413 1412 1411 1410 1409 1408 1407 1407 1406 1405 1404 1403 1402 1401 1401 1400 1399 1398 1397 1397 1396 1396 1396 1395 1395 1395 1395 1394 1394 1394
1467 1466 1465 1463 1462 1461 1460 1459 1457 1456 1456 1456 1455 1453 1452 1451 1451 1451 1448 1446 1444 1442 1441 1439 1438 1437 1436 1436 1434 1433 1432 1431 1430 1429 1428 1428 1427 1426 1426 1424 1424 1423 1422 1422 1421 1421 1421 1420 1418 1417 1416 1415 1414 1413 1413 1412 1411 1410 1410 1409 1408 1407 1406 1405 1404 1403 1402 1402 1401 1400 1399 1398 1397 1396 1396 1395 1395 1394 1394 1393 1393 1393 1393 1393 1392 1392
1466 1465 1464 1462 1461 1460 1459 1458 1457 1456 1456 1455 1454 1452 1451 1450 1449 1448 1446 1444 1442 1441 1441 1439 1436 1435 1434 1433 1433 1432 1431 1430 1429 1428 1428 1427 1426 1425 1424 1423 1422 1421 1421 1420 1419 1419 1418 1417 1416 1415 1415 1414 1412 1411 1411 1410 1409 1409 1408 1407 1406 1406 1404 1403 1402 1401 1401 1400 1399 1398 1397 1396 1396 1395 1394 1393 1393 1392 1392 1392 1391 1391 1391 1391 1391 1391
1465 1464 1462 1461 1460 1459 1458 1457 1456 1455 1454 1453 1452 1451 1449 1448 1447 1446 1445 1442 1441 1440 1439 1437 1435 1433 1432 1432 1432 1431 1431 1430 1428 1427 1426 1425 1424 1424 1423 1421 1420 1419 1418 1418 1417 1416 1416 1415 1414 1413 1412 1411 1411 1410 1409 1408 1407 1406 1406 1405 1404 1403 1402 1401 1400 1399 1398 1397 1396 1396 1395 1394 1394 1393 1392 1392 1391 1391 1390 1390 1390 1389 1389 1389 1389 1389
1463 1462 1461 1459 1458 1457 1456 1456 1454 1453 1451 1451 1450 1449 1448 1446 1445 1445 1444 1442 1440 1439 1438 1436 1434 1431 1430 1430 1431 1431 1430 1428 1427 1426 1424 1422 1421 1421 1421 1419 1418 1417 1416 1416 1415 1414 1413 1413 1412 1411 1410 1409 1409 1408 1407 1406 1405 1404 1404 1403 1402 1401 1400 1399 1398 1397 1396 1395 1394 1393 1393 1392 1392 1391 1391 1390 1389 1389 1389 1388 1388 1387 1387 1387 1387 1387
1462 1461 1459 1457 1456 1454 1454 1453 1452 1451 1450 1449 1448 1448 1447 1446 1444 1443 1442 1441 1440 1438 1437 1436 1434 1431 1429 1428 1428 1429 1429 1427 1425 1423 1422 1420 1419 1419 1419 1418 1417 1415 1415 1414 1413 1412 1411 1411 1410 1409 1408 1407 1406 1406 1405 1404 1403 1402 1401 1401 1400 1399 1398 1397 1396 1394 1393 1392 1392 1391 1390 1390 1390 1389 1389 1388 1387 1387 1387 1386 1386 1386 1386 1385 1385 1385
1460 1459 1458 1456 1454 1453 1452 1451 1451 1449 1448 1448 1446 1446 1445 1444 1443 1442 1441 1439 1438 1437 1435 1434 1433 1431 1429 1426 1426 1427 1427 1426 1423 1421 1420 1418 1417 1417 1417 1417 1416 1414 1413 1412 1411 1411 1410 1409 1408 1407 1406 1405 1404 1404 1403 1402 1401 1400 1399 1398 1397 1396 1395 1394 1393 1391 1391 1390 1390 1389 1388 1388 1387 1387 1386 1386 1386 1385 1385 1385 1384 1384 1384 1383 1383 1383
1458 1457 1457 1455 1453 1452 1451 1450 1449 1448 1447 1446 1445 1444 1443 1442 1441 1441 1439 1438 1436 1435 1434 1432 1430 1429 1428 1427 1426 1425 1425 1424 1422 1420 1418 1416 1415 1414 1415 1415 1413 1412 1411 1410 1409 1408 1408 1407 1406 1406 1405 1403 1402 1401 1401 1400 1399 1398 1397 1396 1395 1393 1392 1391 1390 1389 1388 1388 1387 1387 1386 1386 1385 1385 1384 1384 1384 1383 1383 1383 1382 1382 1382 1382 1382 1381
1456 1456 1455 1454 1452 1450 1449 1448 1448 1447 1446 1445 1444 1443 1442 1441 1439 1438 1436 1435 1434 1432 1431 1430 1428 1427 1426 1425 1423 1423 1423 1422 1420 1418 1416 1415 1413 1412 1413 1412 1411 1410 1409 1408 1407 1407 1406 1405 1404 1403 1402 1401 1401 1400 1398 1397 1396 1395 1394 1393 1392 1391 1389 1388 1387 1386 1386 1386 1385 1384 1384 1383 1383 1382 1382 1382 1381 1381 1381 1381 1381 1380 1380 1380 1380 1380
1455 1453 1453 1453 1451 1450 1447 1446 1446 1445 1444 1443 1442 1441 1440 1439 1437 1436 1434 1432 1431 1429 1429 1428 1427 1426 1425 1423 1422 1421 1421 1421 1420 1417 1415 1413 1411 1411 1411 1411 1410 1409 1407 1406 1406 1405 1405 1404 1402 1401 1400 1399 1398 1397 1396 1395 1394 1393 1391 1390 1389 1388 1387 1386 1385 1384 1384 1383 1382 1382 1381 1381 1381 1380 1380 1380 1380 1379 1379 1379 1379 1378 1378 1378 1378 1378
1453 1451 1451 1451 1451 1449 1446 1445 1444 1443 1443 1442 1441 1440 1438 1437 1435 1433 1431 1431 1429 1428 1428 1427 1426 1424 1423 1422 1421 1420 1421 1420 1419 1416 1414 1411 1409 1409 1410 1410 1409 1407 1406 1404 1404 1403 1403 1401 1400 1399 1398 1397 1396 1395 1394 1392 1391 1390 1389 1388 1387 1386 1385 1384 1383 1382 1381 1381 1380 1379 1379 1379 1378 1378 1377 1377 1377 1377 1377 1377 1376 1376 1376 1376 1376 1376
1452 1450 1449 1449 1448 1447 1445 1444 1442 1442 1442 1441 1440 1439 1437 1436 1435 1433 1431 1430 1429 1428 1426 1425 1424 1422 1422 1421 1420 1419 1419 1419 1418 1416 1413 1410 1408 1407 1408 1408 1407 1406 1404 1403 1402 1401 1401 1399 1398 1397 1396 1395 1394 1393 1391 1390 1389 1388 1387 1386 1385 1384 1383 1382 1381 1380 1379 1378 1378 1377 1377 1376 1376 1375 1375 1375 1375 1375 1375 1375 1374 1374 1374 1374 1374 1374
1450 1449 1448 1447 1446 1446 1444 1443 1442 1441 1441 1440 1439 1438 1437 1436 1435 1433 1431 1430 1428 1426 1424 1423 1421 1420 1419 1419 1418 1418 1418 1418 1417 1415 1412 1409 1407 1406 1406 1407 1406 1404 1402 1401 1401 1400 1398 1397 1396 1395 1394 1393 1392 1391 1389 1388 1387 1386 1385 1384 1383 1382 1381 1381 1379 1378 1377 1376 1376 1375 1375 1374 1374 1373 1373 1372 1372 1372 1372 1372 1372 1371 1371 1372 1372 1372
1449 1448 1447 1447 1446 1445 1444 1443 1442 1441 1439 1438 1437 1436 1435 1434 1433 1431 1429 1427 1426 1424 1423 1421 1420 1418 1417 1417 1416 1416 1416 1416 1415 1413 1411 1408 1406 1405 1405 1405 1405 1403 1401 1400 1399 1398 1397 1395 1394 1393 1392 1391 1390 1389 1388 1386 1386 1385 1384 1383 1382 1381 1380 1379 1378 1376 1376 1375 1374 1374 1373 1372 1371 1371 1371 1371 1370 1370 1370 1370 1369 1369 1370 1370 1370 1371
1449 1448 1447 1446 1445 1444 1443 1442 1441 1439 1438 1437 1436 1434 1433 1431 1430 1428 1427 1426 1424 1423 1421 1420 1418 1417 1416 1416 1415 1414 1413 1413 1412 1411 1409 1407 1405 1404 1403 1403 1403 1402 1400 1398 1397 1396 1395 1393 1392 1391 1390 1389 1388 1387 1386 1385 1384 1383 1382 1381 1380 1379 1378 1377 1376 1375 1375 1374 1373 1372 1372 1371 1370 1369 1369 1368 1368 1368 1368 1368 1367 1368 1368 1368 1368 1369
1447 1446 1445 1444 1443 1442 1441 1440 1439 1437 1436 1436 1434 1433 1431 1430 1428 1426 1425 1424 1423 1422 1421 1419 1417 1416 1414 1414 1413 1412 1411 1410 1409 1408 1408 1406 1405 1403 1402 1402 1401 1401 1399 1397 1396 1395 1394 1392 1391 1389 1388 1387 1386 1385 1385 1384 1383 1382 1381 1380 1379 1378 1376 1376 1375 1374 1373 1373 1372 1371 1371 1370 1369 1368 1367 1366 1366 1366 1366 1366 1366 1366 1366 1366 1367 1367
1444 1443 1442 1441 1441 1439 1438 1437 1436 1435 1434 1433 1432 1431 1430 1429 1427 1426 1424 1423 1422 1421 1420 1418 1416 1415 1413 1412 1411 1410 1409 1409 1408 1407 1406 1405 1404 1402 1401 1401 1401 1400 1398 1396 1394 1393 1392 1391 1389 1388 1387 1386 1385 1384 1383 1382 1381 1381 1380 1378 1377 1376 1375 1374 1373 1372 1372 1371 1370 1370 1369 1368 1367 1367 1366 1365 1365 1365 1365 1364 1364 1364 1364 1364 1364 1364
1442 1441 1440 1439 1438 1437 1436 1435 1434 1433 1432 1431 1431 1430 1429 1428 1426 1424 1423 1422 1421 1420 1418 1417 1416 1415 1413 1411 1410 1408 1408 1407 1407 1406 1405 1404 1403 1401 1401 1400 1400 1399 1397 1395 1393 1391 1390 1389 1388 1387 1386 1385 1384 1383 1382 1381 1380 1379 1378 1377 1376 1375 1374 1373 1372 1371 1370 1370 1369 1368 1367 1367 1366 1365 1365 1364 1364 1363 1363 1363 1363 1363 1363 1363 1362 1362
1439 1438 1437 1436 1436 1435 1434 1433 1432 1431 1430 1429 1429 1428 1427 1426 1425 1423 1422 1421 1420 1419 1418 1416 1415 1414 1412 1411 1409 1407 1406 1406 1406 1405 1404 1403 1402 1401 1400 1399 1399 1398 1397 1395 1392 1390 1388 1387 1386 1386 1385 1384 1382 1381 1380 1379 1378 1377 1376 1375 1374 1373 1372 1371 1371 1370 1369 1368 1367 1366 1366 1365 1364 1364 1363 1363 1362 1362 1362 1362 1362 1362 1362 1361 1361 1361
1437 1436 1435 1434 1433 1432 1431 1430 1430 1429 1428 1427 1427 1426 1425 1424 1423 1422 1421 1420 1419 1418 1417 1416 1414 1413 1412 1411 1409 1407 1405 1404 1404 1404 1404 1402 1401 1400 1399 1399 1398 1397 1397 1396 1394 1391 1388 1385 1384 1383 1383 1382 1381 1380 1379 1378 1377 1376 1375 1374 1373 1372 1371 1370 1369 1368 1367 1366 1365 1365 1364 1363 1363 1362 1361 1361 1361 1361 1361 1361 1361 1361 1361 1361 1361 1360
1435 1434 1433 1431 1431 1430 1429 1428 1428 1427 1426 1426 1425 1424 1423 1422 1421 1420 1419 1418 1417 1416 1416 1414 1413 1412 1411 1410 1409 1407 1405 1403 1403 1403 1403 1402 1401 1399 1399 1398 1397 1396 1396 1396 1395 1393 1390 1386 1383 1381 1381 1380 1380 1379 1378 1377 1376 1376 1375 1373 1372 1371 1370 1369 1368 1367 1366 1365 1364 1363 1362 1362 1361 1361 1360 1360 1360 1360 1359 1360 1360 1360 1360 1360 1360 1359
1433 1432 1431 1430 1429 1428 1427 1427 1426 1425 1424 1424 1423 1422 1421 1421 1420 1419 1418 1417 1416 1416 1414 1413 1412 1411 1410 1408 1407 1406 1404 1403 1402 1402 1402 1401 1400 1399 1398 1397 1396 1395 1394 1394 1393 1392 1391 1388 1384 1381 1380 1379 1378 1378 1377 1376 1376 1375 1374 1373 1372 1370 1369 1368 1367 1366 1365 1364 1363 1362 1361 1361 1360 1360 1359 1359 1358 1358 1358 1358 1358 1359 1359 1359 1358 1358
1431 1430 1429 1428 1427 1426 1426 1425 1424 1423 1422 1422 1421 1421 1420 1419 1419 1418 1417 1416 1416 1415 1413 1412 1411 1410 1408 1407 1405 1404 1403 1402 1402 1402 1401 1401 1400 1398 1397 1396 1396 1395 1393 1392 1391 1391 1389 1387 1385 1383 1380 1378 1377 1377 1376 1376 1375 1374 1374 1372 1371 1370 1368 1367 1366 1365 1364 1363 1362 1361 1360 1359 1359 1358 1358 1358 1357 1357 1357 1357 1357 1357 1357 1357 1357 1356
1429 1428 1427 1426 1426 1425 1424 1423 1422 1421 1421 1420 1420 1419 1418 1418 1417 1416 1416 1415 1414 1413 1412 1411 1410 1409 1407 1406 1405 1403 1401 1401 1401 1401 1400 1400 1399 1398 1396 1396 1395 1394 1393 1392 1391 1389 1388 1386 1385 1384 1381 1379 1377 1376 1376 1375 1374 1373 1372 1371 1371 1369 1368 1367 1366 1364 1363 1362 1361 1360 1360 1359 1358 1358 1357 1357 1356 1356 1356 1356 1356 1356 1356 1356 1356 1355
1427 1426 1426 1425 1424 1423 1423 1422 1421 1420 1420 1419 1418 1417 1417 1416 1416 1415 1414 1414 1413 1412 1411 1410 1408 1407 1406 1405 1404 1402 1401 1401 1401 1400 1400 1399 1398 1398 1396 1395 1395 1394 1393 1392 1390 1389 1387 1385 1384 1383 1382 1380 1377 1375 1374 1373 1373 1372 1371 1370 1370 1369 1367 1366 1365 1364 1363 1361 1361 1360 1359 1359 1358 1357 1357 1356 1356 1356 1355 1355 1354 1354 1354 1354 1354 1354
1426 1425 1424 1424 1423 1422 1421 1421 1420 1419 1419 1418 1417 1416 1416 1415 1414 1414 1413 1412 1411 1410 1409 1408 1407 1406 1405 1404 1403 1402 1401 1400 1400 1400 1399 1399 1398 1397 1396 1395 1394 1393 1393 1391 1390 1389 1387 1385 1384 1382 1381 1380 1378 1376 1374 1372 1371 1371 1370 1369 1368 1368 1367 1366 1365 1364 1363 1361 1361 1360 1359 1359 1358 1357 1356 1356 1355 1355 1354 1354 1353 1353 1353 1353 1353 1353
1425 1424 1423 1422 1422 1421 1421 1420 1419 1418 1418 1417 1416 1415 1414 1414 1413 1412 1411 1410 1410 1408 1407 1406 1406 1405 1404 1403 1402 1401 1401 1400 1399 1399 1398 1398 1397 1397 1396 1394 1393 1392 1392 1391 1390 1388 1387 1386 1384 1382 1381 1379 1378 1376 1375 1373 1371 1370 1369 1368 1367 1367 1366 1365 1364 1363 1362 1361 1361 1360 1359 1359 1358 1357 1356 1355 1354 1354 1353 1352 1352 1352 1352 1351 1351 1351
1423 1422 1422 1421 1421 1420 1419 1419 1418 1417 1416 1416 1415 1414 1413 1412 1412 1411 1410 1409 1408 1407 1406 1405 1404 1403 1402 1402 1401 1401 1400 1399 1399 1398 1397 1397 1396 1396 1395 1394 1392 1391 1391 1390 1389 1388 1387 1386 1385 1383 1381 1379 1377 1375 1374 1373 1372 1371 1369 1367 1366 1366 1366 1365 1364 1363 1362 1361 1361 1360 1359 1358 1357 1356 1356 1355 1354 1353 1352 1351 1351 1351 1351 1350 1350 1350
1422 1421 1421 1420 1420 1419 1418 1417 1417 1416 1415 1415 1414 1413 1412 1411 1411 1410 1409 1408 1407 1406 1405 1404 1403 1402 1401 1401 1400 1400 1399 1399 1398 1397 1396 1396 1395 1395 1394 1393 1392 1391 1390 1389 1388 1387 1386 1385 1384 1382 1381 1379 1377 1375 1374 1372 1371 1371 1369 1368 1366 1365 1365 1364 1364 1363 1362 1361 1361 1359 1359 1358 1357 1356 1355 1354 1353 1352 1351 1351 1350 1349 1349 1349 1349 1348
1421 1420 1419 1419 1418 1418 1417 1416 1416 1415 1414 1413 1413 1412 1411 1410 1409 1408 1407 1406 1405 1405 1403 1402 1401 1401 1400 1400 1399 1399 1398 1398 1397 1396 1396 1395 1395 1394 1393 1392 1391 1390 1389 1388 1387 1386 1385 1384 1383 1381 1380 1379 1377 1376 1374 1372 1371 1371 1370 1369 1367 1365 1364 1364 1363 1363 1362 1361 1360 1359 1358 1357 1356 1355 1355 1354 1353 1352 1351 1350 1349 1348 1348 1348 1348 1347
1420 1419 1418 1418 1417 1416 1416 1415 1415 1414 1413 1412 1411 1411 1410 1409 1408 1407 1406 1405 1404 1403 1402 1401 1400 1400 1399 1398 1398 1398 1397 1397 1396 1396 1395 1394 1394 1393 1392 1391 1391 1390 1388 1387 1386 1385 1384 1383 1382 1381 1380 1378 1377 1375 1373 1372 1371 1371 1370 1368 1367 1365 1364 1363 1363 1362 1361 1361 1360 1359 1358 1357 1356 1355 1354 1353 1352 1351 1351 1350 1349 1348 1348 1347 1347 1347
1418 1418 1417 1416 1416 1415 1415 1414 1413 1412 1412 1411 1410 1410 1409 1408 1407 1406 1405 1404 1403 1402 1401 1400 1400 1399 1398 1397 1397 1397 1396 1396 1396 1395 1394 1393 1392 1391 1390 1390 1389 1388 1387 1386 1384 1383 1382 1381 1381 1379 1378 1377 1376 1375 1373 1372 1371 1370 1369 1368 1367 1366 1364 1363 1362 1361 1361 1360 1359 1358 1357 1356 1356 1355 1354 1353 1352 1351 1350 1350 1349 1348 1348 1347 1347 1347
1417 1416 1416 1415 1415 1414 1413 1413 1412 1411 1411 1410 1409 1408 1408 1407 1406 1406 1404 1403 1402 1401 1400 1400 1399 1398 1397 1397 1396 1396 1395 1395 1394 1394 1392 1391 1390 1389 1388 1388 1387 1386 1386 1385 1383 1382 1380 1379 1378 1377 1377 1376 1375 1374 1372 1371 1371 1370 1369 1368 1367 1366 1365 1364 1362 1361 1360 1360 1359 1358 1357 1356 1355 1354 1353 1353 1352 1351 1350 1350 1349 1348 1348 1348 1347 1347
1416 1415 1415 1414 1413 1413 1412 1411 1411 1410 1410 1409 1408 1407 1407 1406 1406 1405 1403 1402 1401 1401 1400 1399 1398 1397 1397 1396 1395 1394 1394 1393 1393 1392 1391 1390 1389 1388 1387 1386 1386 1385 1384 1383 1382 1381 1380 1378 1377 1376 1376 1375 1374 1373 1372 1371 1371 1370 1369 1368 1367 1366 1366 1364 1363 1362 1361 1360 1358 1357 1356 1356 1355 1354 1353 1352 1351 1351 1350 1350 1349 1348 1348 1347 1347 1346
1414 1414 1413 1413 1412 1412 1411 1410 1410 1409 1409 1408 1407 1406 1406 1405 1404 1403 1403 1402 1401 1400 1399 1398 1398 1398 1397 1396 1394 1393 1392 1392 1391 1390 1389 1388 1387 1386 1386 1385 1384 1383 1383 1382 1381 1380 1379 1378 1376 1375 1375 1374 1373 1373 1372 1371 1371 1370 1369 1368 1367 1366 1365 1364 1363 1362 1361 1360 1359 1357 1356 1356 1355 1354 1353 1352 1351 1351 1350 1349 1349 1348 1347 1346 1346 1346
1413 1412 1412 1411 1411 1411 1410 1409 1409 1408 1407 1407 1406 1406 1405 1404 1403 1402 1402 1401 1401 1400 1399 1398 1398 1397 1396 1395 1394 1393 1392 1391 1390 1388 1387 1386 1386 1385 1384 1384 1383 1382 1382 1381 1380 1379 1378 1377 1376 1375 1374 1374 1373 1372 1372 1371 1371 1371 1370 1368 1367 1366 1365 1364 1363 1362 1361 1360 1359 1357 1356 1355 1354 1353 1352 1351 1351 1350 1350 1349 1349 1348 1347 1346 1346 1345
1411 1411 1411 1410 1410 1409 1409 1408 1407 1406 1406 1405 1405 1404 1404 1403 1403 1402 1401 1400 1400 1399 1398 1397 1397 1396 1396 1395 1394 1393 1392 1391 1390 1388 1387 1386 1385 1384 1383 1382 1382 1381 1381 1380 1380 1378 1377 1376 1376 1375 1374 1374 1373 1372 1371 1371 1371 1371 1369 1368 1367 1366 1365 1364 1363 1362 1361 1360 1359 1358 1356 1355 1354 1353 1352 1351 1350 1349 1349 1349 1348 1347 1347 1346 1345 1345
1410 1410 1410 1409 1409 1408 1407 1407 1406 1405 1405 1404 1403 1403 1403 1402 1402 1401 1401 1400 1399 1398 1397 1397 1396 1396 1395 1394 1393 1392 1392 1391 1389 1388 1387 1386 1384 1383 1382 1382 1381 1380 1380 1379 1379 1378 1377 1376 1375 1375 1374 1374 1373 1373 1372 1371 1371 1370 1369 1368 1367 1366 1365 1364 1363 1362 1361 1360 1359 1358 1356 1356 1354 1353 1352 1351 1350 1349 1348 1348 1347 1347 1346 1346 1345 1344
1409 1408 1408 1408 1407 1407 1406 1405 1405 1404 1403 1403 1402 1402 1402 1401 1401 1401 1400 1399 1398 1397 1397 1396 1396 1395 1394 1393 1393 1392 1391 1390 1389 1388 1386 1386 1384 1383 1382 1381 1380 1379 1378 1378 1377 1377 1376 1376 1375 1375 1374 1374 1374 1373 1372 1371 1370 1369 1368 1368 1367 1366 1365 1364 1363 1362 1361 1360 1359 1358 1356 1356 1354 1353 1352 1351 1350 1349 1348 1348 1347 1346 1346 1345 1344 1343
1407 1407 1407 1406 1406 1405 1405 1404 1403 1403 1402 1402 1401 1401 1401 1400 1400 1400 1399 1398 1397 1397 1396 1396 1396 1395 1394 1393 1392 1391 1391 1390 1389 1387 1386 1385 1384 1383 1382 1381 1380 1379 1378 1377 1376 1376 1375 1375 1375 1375 1374 1374 1373 1372 1371 1370 1369 1369 1368 1367 1366 1366 1365 1364 1363 1362 1361 1360 1359 1357 1356 1355 1354 1353 1352 1351 1350 1349 1348 1347 1346 1346 1345 1344 1344 1343